KN4QQN Weather Reports


time (UTC)temp
C
wind
direction
speed
KPH
gust
KPH
rain 1hr
cm
rain 24hr
cm
rain mn
cm
humidity
%
barometer
mb
20260502234025 13 0.0 0.0 0.00 0.00 0.00 59
20260502233025 14 144 0.0 3.2 0.00 0.00 0.00 56
20260502232026 14 197 3.2 4.8 0.00 0.00 0.00 55
20260502231025 14 103 1.6 6.4 0.00 0.00 0.00 55
20260502230026 14 131 3.2 6.4 0.00 0.00 0.00 56
20260502225026 14 221 3.2 6.4 0.00 0.00 0.00 58
20260502224045 13 109 0.0 3.2 0.00 0.00 0.00 60
20260502223026 13 162 1.6 3.2 0.00 0.00 0.00 61
20260502222025 13 223 4.8 11.3 0.00 0.00 0.00 62
20260502221026 14 189 3.2 8.0 0.00 0.00 0.00 63
20260502220026 14 205 4.8 6.4 0.00 0.00 0.00 63
20260502215026 14 131 1.6 4.8 0.00 0.00 0.00 65
20260502214025 14 114 0.0 3.2 0.00 0.00 0.00 68
20260502213026 15 178 1.6 4.8 0.00 0.00 0.00 67
20260502212046 15 201 0.0 1.6 0.00 0.00 0.00 70
20260502211026 15 0.0 0.0 0.00 0.00 0.00 68
20260502210025 15 152 1.6 4.8 0.00 0.00 0.00 70
20260502205026 15 90 0.0 3.2 0.00 0.00 0.00 68
20260502204025 15 135 1.6 4.8 0.00 0.00 0.00 69
20260502203026 15 174 0.0 3.2 0.00 0.00 0.00 67
20260502202026 15 120 1.6 8.0 0.00 0.00 0.00 67
20260502201045 15 162 1.6 4.8 0.00 0.00 0.00 69
20260502200046 15 157 1.6 4.8 0.00 0.00 0.00 69
20260502195026 15 271 0.0 3.2 0.00 0.00 0.00 69
20260502194025 15 163 1.6 3.2 0.00 0.00 0.00 69
20260502193046 15 126 1.6 3.2 0.00 0.00 0.00 70
20260502192025 15 163 1.6 4.8 0.00 0.00 0.00 70
20260502191046 14 138 0.0 3.2 0.00 0.00 0.00 70
20260502190026 15 131 1.6 3.2 0.00 0.00 0.00 70
20260502185025 15 139 0.0 1.6 0.00 0.00 0.00 71
20260502184026 15 144 1.6 3.2 0.00 0.00 0.00 72
20260502183046 14 126 1.6 4.8 0.00 0.00 0.00 74
20260502182026 13 227 1.6 3.2 0.00 0.00 0.00 74
20260502181026 13 145 1.6 3.2 0.00 0.00 0.00 75
20260502163026 12 86 3.2 8.0 0.00 0.00 0.00 80
20260502162026 12 177 1.6 3.2 0.00 0.00 0.00 81
20260502161046 12 166 1.6 3.2 0.00 0.00 0.00 80
20260502152026 12 166 3.2 8.0 0.00 0.00 0.00 81
20260502151026 12 168 1.6 3.2 0.00 0.00 0.00 82
20260502123026 11 268 4.8 8.0 0.00 0.00 0.00 77
20260502122026 11 222 3.2 9.7 0.00 0.00 0.00 79
20260502121026 11 143 3.2 6.4 0.00 0.00 0.00 79
20260502115026 11 197 1.6 4.8 0.00 0.00 0.00 80
20260502114026 11 133 1.6 6.4 0.00 0.00 0.00 79
20260502113026 11 137 3.2 6.4 0.00 0.00 0.00 78
20260502112026 11 197 4.8 8.0 0.00 0.00 0.00 78
20260502111026 11 134 1.6 4.8 0.00 0.00 0.00 79
20260502110026 12 249 4.8 9.7 0.00 0.00 0.00 77
20260502105026 12 200 4.8 8.0 0.00 0.00 0.00 76
20260502104026 12 269 4.8 9.7 0.00 0.00 0.00 75
20260502103046 12 289 3.2 6.4 0.00 0.00 0.00 76
20260502102026 12 270 4.8 9.7 0.00 0.00 0.00 77
20260502101026 12 186 3.2 4.8 0.00 0.00 0.00 80
20260502091026 11 0.0 0.0 0.00 0.00 0.00 84
20260502071027 11 220 1.6 3.2 0.00 0.00 0.00 86
20260502070026 11 0.0 1.6 0.00 0.00 0.00 86
20260502065027 11 0.0 0.0 0.00 0.00 0.00 86
20260502064027 11 0.0 0.0 0.00 0.00 0.00 85
20260502063026 11 0.0 0.0 0.00 0.00 0.00 85
20260502062026 11 0.0 0.0 0.00 0.00 0.00 85
20260502061027 12 0.0 0.0 0.00 0.00 0.00 85
20260502060027 12 0.0 1.6 0.00 0.00 0.00 84
20260502055026 12 0.0 0.0 0.00 0.00 0.00 84
20260502054026 12 0.0 0.0 0.00 0.00 0.00 84
20260502053027 12 0.0 0.0 0.00 0.00 0.00 84
20260502052027 12 0.0 1.6 0.00 0.00 0.00 84
20260502051026 11 0.0 0.0 0.00 0.00 0.00 84
20260502050027 12 0.0 0.0 0.00 0.00 0.00 83
20260502045026 12 0.0 0.0 0.00 0.00 0.00 83
20260502044047 12 0.0 0.0 0.00 0.00 0.00 82
20260502043027 12 0.0 0.0 0.00 0.00 0.00 82
20260502042046 12 0.0 0.0 0.00 0.00 0.00 81
20260502041027 12 0.0 0.0 0.00 0.00 0.00 81
20260502040026 12 0.0 0.0 0.00 0.00 0.00 80
20260502035026 12 0.0 0.0 0.00 0.00 0.00 80
20260502034047 12 0.0 0.0 0.00 0.00 0.00 80
20260502033026 12 0.0 0.0 0.00 0.00 0.00 80
20260502032027 12 205 0.0 1.6 0.00 0.00 0.00 79
20260502031027 12 0.0 0.0 0.00 0.00 0.00 79
20260502030027 12 0.0 1.6 0.00 0.00 0.00 78
20260502025027 12 0.0 0.0 0.00 0.00 0.00 78
20260502024027 12 0.0 1.6 0.00 0.00 0.00 77
20260502023027 12 0.0 0.0 0.00 0.00 0.00 77
20260502022027 12 0.0 0.0 0.00 0.00 0.00 77
20260502021027 12 0.0 0.0 0.00 0.00 0.00 77
20260502020027 12 161 0.0 3.2 0.00 0.00 0.00 77
20260502015027 12 110 0.0 1.6 0.00 0.00 0.00 77
20260502014027 12 0.0 0.0 0.00 0.00 0.00 77
20260502013047 12 101 0.0 1.6 0.00 0.00 0.00 77
20260502012027 12 165 1.6 3.2 0.00 0.00 0.00 78
20260502011027 12 0.0 1.6 0.00 0.00 0.00 78
20260502010027 12 139 0.0 1.6 0.00 0.00 0.00 77
20260502005047 12 0.0 0.0 0.00 0.00 0.00 76
20260502004027 12 0.0 0.0 0.00 0.00 0.00 74
20260502003027 12 0.0 0.0 0.00 0.00 0.00 73
20260502002027 12 188 0.0 3.2 0.00 0.00 0.00 72
20260502001027 13 85 1.6 3.2 0.00 0.00 0.00 70
20260502000047 13 136 1.6 3.2 0.00 0.00 0.00 69
20260501235047 13 0.0 0.0 0.00 0.00 0.00 68